Total_Precipitation_Accumulation
2.06 2.23 2.53 3.02 3.83 4.63 5.35 5.52 5.89 5.49 4.88 4.33 3.92 3.82 3.68 3.38 3.25 3.13 3.10 3.05 2.84 2.78 3.02 2.89 3.01 2.83 2.89 2.88 2.95 3.24 3.37 3.00 3.05 3.52 3.17 2.56 2.12 2.15 2.05 2.09 2.18 2.18 2.21
2.14 2.47 2.99 3.38 3.42 3.99 4.73 4.82 4.55 4.40 3.99 3.65 3.52 3.37 3.35 3.01 2.83 2.72 2.89 2.72 2.61 2.73 2.74 2.89 2.75 2.68 2.84 2.85 2.93 3.20 3.14 2.83 3.00 3.50 3.69 3.16 2.76 2.41 1.97 2.01 2.05 2.10 2.34
1.98 2.40 2.79 3.23 3.22 3.62 3.74 3.40 3.28 3.40 3.36 3.21 3.15 3.06 3.10 2.92 2.70 2.58 2.67 2.53 2.34 2.41 2.48 2.45 2.51 2.64 2.40 2.66 2.95 3.07 3.09 3.04 2.92 3.11 3.62 3.47 3.13 2.75 2.33 2.12 2.18 2.35 2.51
1.43 1.72 2.02 2.44 2.66 2.78 2.70 2.67 2.68 2.78 3.00 3.01 2.83 2.70 2.49 2.43 2.41 2.36 2.45 2.51 2.26 2.13 2.16 2.18 2.38 2.51 2.48 2.79 2.50 2.65 2.91 3.12 2.90 2.90 2.90 2.98 3.24 3.27 2.84 2.45 2.27 2.32 2.44
1.14 1.28 1.33 1.54 1.84 2.10 2.18 2.18 2.52 2.66 2.70 2.72 2.72 2.78 2.52 2.39 2.39 2.53 2.77 2.71 2.37 2.02 1.86 2.00 2.23 2.39 2.47 2.58 2.53 2.64 2.64 2.68 2.70 2.78 2.78 2.95 3.21 3.03 2.93 2.79 2.55 2.39 2.22
0.90 1.10 1.12 1.14 1.28 1.42 1.58 1.74 2.09 2.35 2.43 2.39 2.39 2.46 2.50 2.54 2.39 2.38 2.50 2.44 2.30 2.09 1.90 1.93 2.20 2.30 2.39 2.47 2.51 2.50 2.43 2.52 2.60 2.65 2.68 2.88 2.93 2.91 2.98 2.80 2.61 2.46 2.17
0.72 0.90 0.90 0.95 1.08 1.10 1.20 1.45 1.73 1.92 2.00 2.06 2.13 2.21 2.43 2.43 2.25 2.08 2.18 2.23 2.10 2.02 2.02 1.98 2.31 2.46 2.45 2.39 2.51 2.51 2.46 2.59 2.67 2.68 2.69 2.69 2.66 2.74 2.95 2.98 2.69 2.49 2.23
0.67 0.73 0.68 0.71 0.90 0.99 1.06 1.24 1.41 1.52 1.64 1.85 2.06 2.06 2.20 2.06 1.98 2.18 2.07 1.98 1.80 1.89 2.16 2.27 2.29 2.31 2.35 2.33 2.64 2.46 2.46 2.57 2.60 2.48 2.87 2.80 2.63 2.91 3.17 3.34 3.42 3.04 2.73
0.63 0.65 0.62 0.62 0.67 0.76 0.91 1.15 1.42 1.44 1.45 1.57 1.81 1.89 1.86 1.89 2.02 2.25 2.17 2.00 1.94 1.86 2.10 2.25 2.34 2.29 2.31 2.47 2.72 2.66 2.68 2.79 2.67 2.67 2.97 2.87 2.73 2.85 3.02 3.35 3.68 3.69 3.31
0.70 0.76 0.67 0.68 0.69 0.70 0.86 0.98 1.15 1.37 1.54 1.51 1.52 1.51 1.76 1.83 1.97 2.07 1.98 1.97 1.98 2.04 2.15 2.15 2.18 2.15 2.15 2.33 2.72 2.71 2.73 2.93 2.88 2.86 2.92 2.90 2.78 2.91 2.92 3.07 3.45 3.77 3.75
0.69 0.75 0.61 0.62 0.65 0.73 0.81 0.95 1.09 1.35 1.54 1.43 1.44 1.57 1.73 1.82 1.90 2.06 2.04 2.00 2.02 2.12 2.15 2.16 2.17 2.09 1.99 2.13 2.37 2.46 2.68 2.81 2.87 2.84 2.91 2.91 3.06 3.07 2.93 3.03 3.18 3.44 3.64
0.78 0.82 0.75 0.85 0.88 0.98 1.00 1.05 1.13 1.31 1.44 1.44 1.51 1.60 1.70 1.76 1.84 1.93 2.05 2.11 2.09 2.19 2.23 2.25 2.20 2.02 2.01 2.13 2.23 2.35 2.57 2.70 2.79 2.93 3.07 2.82 2.97 3.09 3.00 3.01 3.01 3.17 3.49
0.98 0.96 1.00 1.12 1.08 1.09 1.21 1.25 1.31 1.37 1.50 1.64 1.65 1.60 1.64 1.64 1.73 1.87 1.99 2.12 2.18 2.26 2.34 2.34 2.25 2.18 2.22 2.30 2.36 2.45 2.60 2.67 2.72 2.86 2.86 2.80 2.96 2.82 2.91 3.02 2.96 2.97 3.01
1.03 0.97 1.02 1.08 1.12 1.20 1.36 1.49 1.48 1.43 1.51 1.55 1.62 1.66 1.69 1.76 1.87 1.98 2.06 2.14 2.14 2.19 2.18 2.13 2.22 2.29 2.33 2.37 2.40 2.39 2.41 2.45 2.52 2.51 2.42 2.36 2.41 2.46 2.69 2.69 2.69 2.79 2.88
1.03 0.96 0.99 1.08 1.24 1.29 1.28 1.33 1.38 1.40 1.55 1.58 1.57 1.66 1.83 1.88 1.92 1.93 1.95 2.00 2.02 1.94 2.11 2.13 2.23 2.31 2.26 2.13 2.24 2.28 2.22 2.38 2.30 2.15 2.10 2.10 2.20 2.25 2.34 2.21 2.33 2.56 2.63
1.03 1.03 1.11 1.22 1.23 1.16 1.16 1.17 1.13 1.21 1.44 1.57 1.67 1.77 1.82 1.79 1.90 1.94 1.92 1.93 1.97 2.04 2.10 2.12 2.24 2.30 2.12 2.19 2.25 2.30 2.29 2.32 2.23 2.17 2.10 1.97 2.00 2.02 2.04 2.02 2.06 2.24 2.38
0.93 1.05 1.17 1.19 1.20 1.25 1.25 1.14 1.04 1.14 1.46 1.58 1.63 1.84 1.96 1.89 1.98 2.01 2.02 2.00 2.02 2.17 2.22 2.31 2.36 2.28 2.39 2.37 2.20 2.24 2.19 2.20 2.22 2.25 2.22 1.91 1.73 1.93 1.90 2.03 1.98 1.92 1.99
0.84 0.96 1.05 1.11 1.14 1.16 1.15 1.11 1.11 1.16 1.43 1.66 1.79 2.09 2.27 2.13 2.14 2.17 2.18 2.24 2.34 2.37 2.42 2.44 2.35 2.31 2.41 2.42 2.09 2.03 1.95 2.00 2.08 2.12 2.17 2.18 2.08 2.10 2.16 2.20 2.13 1.99 1.94
0.91 0.93 1.03 1.15 1.25 1.37 1.34 1.29 1.37 1.49 1.67 1.86 2.03 2.31 2.55 2.65 2.60 2.43 2.50 2.59 2.59 2.54 2.59 2.64 2.62 2.49 2.53 2.42 2.04 1.92 1.80 1.90 1.96 2.01 2.01 2.04 1.95 2.03 1.96 1.92 1.88 1.84 1.77
0.95 1.11 1.27 1.29 1.34 1.52 1.51 1.52 1.65 1.89 2.04 2.03 2.06 2.29 2.57 2.69 2.65 2.61 2.79 2.89 2.78 2.68 2.72 2.61 2.48 2.36 2.37 2.35 2.01 1.81 1.69 1.80 1.89 1.98 1.95 1.94 1.84 1.83 1.72 1.61 1.62 1.56 1.59
0.93 0.98 1.02 1.16 1.30 1.45 1.59 1.79 1.87 2.01 2.11 2.16 2.17 2.29 2.53 2.83 2.78 2.83 2.90 2.97 2.96 2.96 2.95 2.84 2.69 2.48 2.40 2.42 2.12 1.90 1.71 1.76 1.81 1.73 1.71 1.72 1.73 1.53 1.47 1.44 1.42 1.44 1.49
0.96 1.01 0.98 1.08 1.28 1.50 1.75 1.89 1.94 2.03 2.19 2.24 2.23 2.30 2.57 2.69 2.72 2.88 2.95 3.07 3.19 3.16 3.13 3.10 2.82 2.70 2.61 2.34 2.06 1.89 1.83 1.87 1.88 1.80 1.75 1.76 1.68 1.45 1.36 1.23 1.18 1.26 1.26
1.09 1.19 1.23 1.22 1.36 1.55 1.77 1.99 2.04 2.07 2.02 2.02 2.05 2.18 2.35 2.47 2.63 2.74 2.69 2.78 2.92 2.87 2.86 2.83 2.69 2.72 2.82 2.63 2.19 1.89 1.80 1.84 1.86 1.94 2.02 1.84 1.68 1.55 1.42 1.37 1.31 1.22 1.14
1.29 1.32 1.45 1.46 1.48 1.57 1.75 1.93 1.97 1.99 1.97 1.92 1.92 2.06 2.30 2.44 2.53 2.59 2.56 2.63 2.67 2.72 2.76 2.75 2.66 2.66 2.79 2.76 2.43 2.09 1.88 1.79 1.72 1.72 1.73 1.63 1.58 1.51 1.38 1.33 1.24 1.10 1.12
1.31 1.32 1.47 1.57 1.57 1.61 1.79 1.92 1.98 2.05 2.10 2.05 2.04 2.17 2.27 2.35 2.52 2.59 2.61 2.63 2.60 2.58 2.58 2.55 2.47 2.48 2.58 2.63 2.45 2.15 1.94 1.84 1.79 1.73 1.69 1.65 1.66 1.56 1.47 1.39 1.35 1.36 1.37
1.40 1.47 1.56 1.61 1.57 1.58 1.73 1.87 2.06 2.25 2.31 2.24 2.20 2.19 2.16 2.24 2.24 2.25 2.22 2.21 2.16 2.16 2.13 2.10 2.02 1.98 2.15 2.17 1.90 1.75 1.77 1.77 1.75 1.63 1.60 1.66 1.68 1.63 1.57 1.53 1.47 1.47 1.49